Brainerd, MN

11:43 PM CST on November 17, 2017 (GMT -0600)
Brainerd-Crow Wing County Regional

Weather History for KBRD - June, 2013

Change the Weather History Date:

Wednesday, June 26, 2013

  Actual Average Record
Temperature  
Mean Temperature 77 °F -  
Max Temperature 84 °F 78 °F 94 °F (1964)
Min Temperature 69 °F 55 °F 38 °F (1958)
Cooling Degree Days 12    
Growing Degree Days 27 (Base 50)    
Moisture  
Dew Point 67 °F    
Average Humidity 76    
Maximum Humidity 94    
Minimum Humidity 46    
Precipitation  
Precipitation 0.00 in - - ()
Sea Level Pressure  
Sea Level Pressure 29.70 in    
Wind  
Wind Speed 4 mph (West)    
Max Wind Speed 13 mph    
Max Gust Speed 18 mph    
Visibility 8 miles    
Events Rain    
Averages and records for this station are not official NWS values.
T = Trace of Precipitation, MM = Missing Value Source: NWS Daily Summary

Daily Weather History Graph

Daily Weather History Graph

Search for Another Location

Airport or City:

Trip Planner

Search our weather history database for the weather conditions in past years. The results will help you decide how hot, cold, wet, or windy it might be!

Date:

Astronomy

Jun. 26, 2013 Rise Set
Actual Time 5:25 AM CDT 9:13 PM CDT
Civil Twilight 4:46 AM CDT 9:52 PM CDT
Nautical Twilight 3:53 AM CDT 10:44 PM CDT
Astronomical Twilight 2:38 AM CDT 12:00 AM CDT
Moon 11:20 PM CDT (6/26) 9:32 AM CDT (6/26)
Length of Visible Light 17h 05m
Length of Day
15h 47m
Waning Gibbous, 85% of the Moon is Illuminated
Jun 26
Waning Gibbous
Jun 29
Last Quarter
Jul 8
New
Jul 15
First Quarter
Jul 22
Full

Hourly Weather History & Observations

Time (CDT) Temp. Heat Index Dew Point Humidity Pressure Visibility Wind Dir Wind Speed Gust Speed Precip Events Conditions
12:53 AM 71.1 °F - 66.0 °F 84% 29.69 in 10.0 mi Calm Calm - N/A   Clear
1:53 AM 70.0 °F - 66.9 °F 90% 29.68 in 9.0 mi Calm Calm - N/A   Clear
2:53 AM 71.1 °F - 68.0 °F 90% 29.67 in 7.0 mi SSE 4.6 mph - N/A   Clear
3:53 AM 71.1 °F - 68.0 °F 90% 29.67 in 6.0 mi South 3.5 mph - N/A   Clear
4:53 AM 72.0 °F - 69.1 °F 91% 29.68 in 6.0 mi SW 3.5 mph - N/A   Scattered Clouds
5:38 AM 71.6 °F - 69.8 °F 94% 29.70 in 4.0 mi Calm Calm - N/A   Mostly Cloudy
5:47 AM 71.6 °F - 69.8 °F 94% 29.68 in 5.0 mi NNE 4.6 mph - N/A   Mostly Cloudy
5:48 AM 72.0 °F - 69.1 °F 91% 29.65 in 5.0 mi NNE 3.5 mph - N/A   Mostly Cloudy
6:02 AM 71.6 °F - 69.8 °F 94% 29.67 in 3.0 mi East 4.6 mph - N/A   Scattered Clouds
6:23 AM 71.6 °F - 69.8 °F 94% 29.66 in 3.0 mi East 5.8 mph - N/A   Mostly Cloudy
6:53 AM 72.0 °F - 69.1 °F 91% 29.66 in 4.0 mi Calm Calm - N/A   Mostly Cloudy
7:02 AM 73.4 °F - 69.8 °F 88% 29.67 in 5.0 mi ESE 4.6 mph - 0.00 in Rain Light Rain
7:35 AM 73.4 °F - 69.8 °F 88% 29.65 in 3.0 mi Calm Calm - 0.00 in   Overcast
7:53 AM 73.0 °F - 70.0 °F 90% 29.64 in 4.0 mi Calm Calm - 0.00 in   Mostly Cloudy
8:10 AM 73.4 °F - 69.8 °F 88% 29.68 in 5.0 mi Calm Calm - N/A   Mostly Cloudy
8:53 AM 73.9 °F - 70.0 °F 87% 29.68 in 6.0 mi WSW 4.6 mph - N/A   Mostly Cloudy
9:03 AM 73.4 °F - 69.8 °F 88% 29.70 in 7.0 mi SW 6.9 mph - N/A   Mostly Cloudy
9:22 AM 75.2 °F - 69.8 °F 83% 29.71 in 7.0 mi SW 10.4 mph - N/A   Scattered Clouds
9:48 AM 75.2 °F - 69.8 °F 83% 29.72 in 8.0 mi West 11.5 mph - N/A   Mostly Cloudy
9:53 AM 75.9 °F - 69.1 °F 79% 29.70 in 9.0 mi West 9.2 mph - N/A   Mostly Cloudy
10:08 AM 75.2 °F - 68.0 °F 78% 29.72 in 10.0 mi WSW 8.1 mph - N/A   Scattered Clouds
10:53 AM 79.0 °F - 66.0 °F 64% 29.70 in 10.0 mi WSW 8.1 mph - N/A   Scattered Clouds
11:53 AM 81.0 °F 82.7 °F 64.9 °F 58% 29.70 in 10.0 mi West 8.1 mph - N/A   Partly Cloudy
12:18 PM 80.6 °F 82.7 °F 66.2 °F 61% 29.72 in 10.0 mi West 11.5 mph 17.3 mph N/A   Mostly Cloudy
12:40 PM 80.6 °F 82.3 °F 64.4 °F 58% 29.72 in 10.0 mi West 8.1 mph - N/A   Overcast
12:53 PM 81.0 °F 83.0 °F 66.0 °F 60% 29.70 in 10.0 mi West 8.1 mph - N/A   Overcast
1:53 PM 81.0 °F 83.0 °F 66.0 °F 60% 29.71 in 10.0 mi WNW 12.7 mph - N/A   Scattered Clouds
2:53 PM 82.0 °F 83.8 °F 64.9 °F 56% 29.72 in 10.0 mi NW 11.5 mph - N/A   Scattered Clouds
3:53 PM 82.9 °F 84.6 °F 64.9 °F 54% 29.72 in 10.0 mi WNW 10.4 mph 18.4 mph N/A   Scattered Clouds
4:53 PM 84.9 °F 86.1 °F 64.0 °F 49% 29.73 in 10.0 mi WNW 9.2 mph - N/A   Partly Cloudy
5:53 PM 84.0 °F 84.5 °F 62.1 °F 47% 29.74 in 10.0 mi NW 10.4 mph 18.4 mph N/A   Clear
6:53 PM 82.9 °F 83.2 °F 60.1 °F 46% 29.74 in 10.0 mi NW 9.2 mph - N/A   Clear
7:53 PM 80.1 °F 80.9 °F 60.1 °F 50% 29.76 in 10.0 mi WNW 5.8 mph - N/A   Clear
8:53 PM 78.1 °F - 62.1 °F 58% 29.78 in 10.0 mi West 5.8 mph - N/A   Clear
9:53 PM 71.1 °F - 63.0 °F 75% 29.78 in 10.0 mi Calm Calm - N/A   Clear
10:53 PM 72.0 °F - 63.0 °F 73% 29.78 in 10.0 mi SW 3.5 mph - N/A   Clear
11:53 PM 69.1 °F - 63.0 °F 81% 29.79 in 10.0 mi Calm Calm - N/A   Clear